Location: Unnamed
(47.6264°N, 122.3366°W)
Time: 06:44:28
(UTC-07:00)

ELYUSIUM/LOWER FREE FLYE - Visible Passes

Search period start: 19 June 2019 00:00
Search period end: 29 June 2019 00:00
Orbit: 572 x 590 km, 97.7° (Epoch: 19 June)

Date Brightness Start Highest point End Pass type
(mag) Time Alt. Az. Time Alt. Az. Time Alt. Az.
19 Jun ? 23:16:32 18° S 23:19:21 50° W 23:23:24 10° NNW visible
20 Jun ? 21:46:41 10° ESE 21:49:43 20° ENE 21:52:47 10° NNE visible
20 Jun ? 23:22:00 18° SSW 23:24:48 43° W 23:28:46 10° NNW visible
21 Jun ? 21:51:53 10° ESE 21:55:06 23° ENE 21:58:21 10° NNE visible
21 Jun ? 23:27:28 17° SSW 23:30:15 38° W 23:34:08 10° NNW visible
22 Jun ? 21:57:06 10° ESE 22:00:28 25° ENE 22:03:54 10° N visible
22 Jun ? 23:32:57 16° SSW 23:35:42 34° W 23:39:30 10° NNW visible
23 Jun ? 22:02:20 10° SE 22:05:51 28° ENE 22:09:26 10° N visible
23 Jun ? 23:38:25 15° SSW 23:41:10 30° W 23:44:50 10° NNW visible
24 Jun ? 22:07:35 10° SE 22:11:15 32° ENE 22:14:57 10° N visible
24 Jun ? 23:43:54 14° SW 23:46:37 26° W 23:50:09 10° NW visible
25 Jun ? 22:13:01 11° SE 22:16:38 36° ENE 22:20:27 10° N visible
25 Jun ? 23:49:23 13° SW 23:52:05 23° W 23:55:26 10° NW visible
26 Jun ? 22:18:30 12° SE 22:22:02 40° ENE 22:25:57 10° N visible
26 Jun ? 23:54:52 12° SW 23:57:33 21° W 00:00:43 10° NW visible
27 Jun ? 22:23:59 13° SE 22:27:26 46° ENE 22:31:26 10° N visible
28 Jun ? 00:00:21 11° SW 00:03:01 18° W 00:05:58 10° NW visible
28 Jun ? 22:29:28 14° SE 22:32:50 52° ENE 22:36:54 10° N visible
